STARLINK-3864, 52468

Orbit data source: Space-Track

STARLINK-3864, 52468 is a payload satellite owned by SpaceX/Seattle (US) in LEO that was launched on Fri, 06 May 2022 UTC via an FALCON 9 launch vehicle from the Air Force Eastern Test Range (AFETR). Payload-class satellites include a variety of spacecraft equipped with specific instruments for various scientific and technological missions. These include communications satellites like Starlink; space stations such as the ISS; scientific satellites like the Hubble; Earth observation satellites from companies like Planet Labs, Umbra, and HawkEye 360; GPS; miniature CubeSats for education and research; and military/defense satellites.

Loading next visibility...
Identifier
52468, 2022-049T
Orbit
LEO
Country
Flag of USUS
Related business
Manufacturer
SpaceX/Seattle
Mission
Operational Commercial Communications
Bus & Motor
STARLINK, Unknown motor
Mass
297 kg wet, ~220 kg dry
Launch date (UTC)
2022-05-06 (4 years ago)
Launch vehicle
FALCON 9
Launch site
Air Force Eastern Test Range (AFETR)
Object type
Payload
Rocket body
Debris
Shape & HBR
Box + 1 Pan, 10.1 m
Radar Cross Section
13.562 m², Large (>1 m²)

Expand to show TLE details & history
Last TLE update: 11 hours ago

TLE from 11 hours ago
0 STARLINK-3864
1 52468U 22049T   25347.00827592  .00000595  00000-0  55441-4 0  9998
2 52468  53.2182  88.2476 0001164  75.2582 284.8539 15.08836922199163
Epoch: 2025-12-13T00:11Z
TLE epoch observation values (Epoch: 2025-12-13T00:11:55.039Z)
Latitude
-0.00003°
Longitude
3.32653°
Altitude
540.444 km
Speed
7.593 km/s
True Right ascension
05h 52m 59s
True Declination
0° 00' 00"
Sunlit
Object was in full shadow at epoch
Visualization orbit readout
Latitude
Unknown
Longitude
Unknown
Altitude
Unknown
Speed
Unknown
Apparent Right ascension
Unknown
Apparent Declination
Unknown
Sunlit
N/A
Visualization observer readout
Local Sidereal Time
09:14:00
Azimuth
Unknown
Elevation
Unknown
Doppler factor
Unknown
Orbital elements
Apogee altitude
540.803 km
Perigee altitude
539.192 km
Semi-major axis
6,918.135 km
Eccentricity
0.00012
Inclination
53.2182°
RAAN
88.2476°
Arg. of periapsis
75.2582°
True anomaly
284.84101°
Mean anomaly
284.8539°
Eccentric anomaly
284.84745°
Mean motion
3.7719 °/min
Orbital period
95.44 mins
BSTAR
0.000055441
Loading maneuver chart data...
Computing Atmospheric mass density...
Loading historical data...
Loading historical data...
Loading historical data...
Loading historical data...
Loading historical data...
Loading historical data...
Loading historical data...

Documentation

Showing up to 5 results
|